User: anonymous   Login
Location: Unspecified
(0.0000°N, 0.0000°E)
Time: 11:54:55
(UTC+02:00)
Language:

CZ-4B R/B - Orbit

View from above orbital plane
View from above orbital plane
View from above satellite
View from above satellite

Ground track
Ground track

The orbit data is extracted from the following two-line orbital elements,

1 33410U 08053C   18173.90589506 -.00000005 +00000-0 +47597-5 0  9992
2 33410 097.7777 147.4210 0120365 028.1524 332.6137 14.98668732526085
Epoch (UTC): 22 June 2018 21:44:29
Eccentricity: 0.0120365
inclination: 97.7777°
perigee height: 487 km
apogee height: 654 km
right ascension of ascending node: 147.4210°
argument of perigee: 28.1524°
revolutions per day: 14.98668732
mean anomaly at epoch: 332.6137°
orbit number at epoch: 52608

The dashed part of the orbit path shows where the satellite is in the earth's shadow,  

DLR